| time (UTC) | temp F | wind direction | speed MPH | gust MPH | rain 1hr in | rain 24hr in | rain mn in | humidity % | barometer mb |
| 20260505124533 | 54 | 319 | 2.0 | 5.0 | 0.00 | 0.00 | 0.00 | 38 | 1003.3 |
| 20260505123010 | 54 | 338 | 2.0 | 6.0 | 0.00 | 0.00 | 0.00 | 38 | 1003.5 |
| 20260505121552 | 54 | 307 | 3.0 | 6.0 | 0.00 | 0.00 | 0.00 | 37 | 1003.4 |
| 20260505120031 | 54 | 317 | 2.0 | 6.0 | 0.00 | 0.00 | 0.00 | 37 | 1003.3 |
| 20260505114512 | 54 | 303 | 5.0 | 9.0 | 0.00 | 0.00 | 0.00 | 36 | 1003.4 |
| 20260505113108 | 55 | 321 | 4.0 | 6.0 | 0.00 | 0.00 | 0.00 | 36 | 1003.2 |
| 20260505111533 | 54 | 338 | 2.0 | 4.0 | 0.00 | 0.00 | 0.00 | 36 | 1003.2 |
| 20260505101512 | 55 | 271 | 0.0 | 3.0 | 0.00 | 0.00 | 0.00 | 35 | 1003.3 |
| 20260505100055 | 55 | 257 | 1.0 | 3.0 | 0.00 | 0.00 | 0.00 | 34 | 1003.2 |
| 20260505094541 | 56 | 257 | 2.0 | 4.0 | 0.00 | 0.00 | 0.00 | 32 | 1003.2 |
| 20260505093017 | 57 | 327 | 0.0 | 2.0 | 0.00 | 0.00 | 0.00 | 31 | 1003.0 |
| 20260505091505 | 57 | 17 | 3.0 | 9.0 | 0.00 | 0.00 | 0.00 | 30 | 1003.0 |
| 20260505090047 | 58 | 339 | 4.0 | 11.0 | 0.00 | 0.00 | 0.00 | 30 | 1003.1 |
| 20260505084530 | 58 | 337 | 7.0 | 11.0 | 0.00 | 0.00 | 0.00 | 30 | 1003.3 |
| 20260505083006 | 58 | 304 | 7.0 | 14.0 | 0.00 | 0.00 | 0.00 | 31 | 1003.4 |
| 20260505081555 | 58 | 317 | 7.0 | 16.0 | 0.00 | 0.00 | 0.00 | 31 | 1004.0 |
| 20260505080044 | 58 | 17 | 7.0 | 13.0 | 0.00 | 0.00 | 0.00 | 31 | 1004.2 |
| 20260505074506 | 59 | 325 | 4.0 | 11.0 | 0.00 | 0.00 | 0.00 | 30 | 1004.2 |
| 20260505073046 | 59 | 315 | 5.0 | 10.0 | 0.00 | 0.00 | 0.00 | 30 | 1004.0 |
| 20260505071528 | 60 | 5 | 6.0 | 13.0 | 0.00 | 0.00 | 0.00 | 29 | 1004.1 |
| 20260505070005 | 60 | 329 | 4.0 | 9.0 | 0.00 | 0.00 | 0.00 | 27 | 1004.0 |
| 20260505064540 | 61 | 278 | 7.0 | 13.0 | 0.00 | 0.00 | 0.00 | 27 | 1003.7 |
| 20260505063020 | 61 | 307 | 9.0 | 19.0 | 0.00 | 0.00 | 0.00 | 26 | 1003.5 |
| 20260505061555 | 61 | 313 | 9.0 | 16.0 | 0.00 | 0.00 | 0.00 | 26 | 1003.5 |
| 20260505061504 | 61 | 296 | 9.0 | 16.0 | 0.00 | 0.00 | 0.00 | 26 | 1003.5 |
| 20260505060039 | 62 | 307 | 7.0 | 14.0 | 0.00 | 0.00 | 0.00 | 25 | 1003.6 |
| 20260505054514 | 62 | 261 | 5.0 | 10.0 | 0.00 | 0.00 | 0.00 | 24 | 1003.8 |
| 20260505053053 | 63 | 303 | 8.0 | 13.0 | 0.00 | 0.00 | 0.00 | 23 | 1003.7 |
| 20260505051532 | 63 | 269 | 8.0 | 15.0 | 0.00 | 0.00 | 0.00 | 23 | 1003.6 |
| 20260505041528 | 64 | 315 | 6.0 | 10.0 | 0.00 | 0.00 | 0.00 | 22 | 1003.2 |
| 20260505040004 | 65 | 315 | 8.0 | 14.0 | 0.00 | 0.00 | 0.00 | 23 | 1003.2 |
| 20260505034544 | 65 | 313 | 5.0 | 10.0 | 0.00 | 0.00 | 0.00 | 22 | 1003.2 |
| 20260505033033 | 65 | 324 | 5.0 | 10.0 | 0.00 | 0.00 | 0.00 | 22 | 1003.0 |
| 20260505031504 | 66 | 291 | 4.0 | 11.0 | 0.00 | 0.00 | 0.00 | 22 | 1002.8 |
| 20260505030045 | 66 | 290 | 8.0 | 16.0 | 0.00 | 0.00 | 0.00 | 21 | 1002.7 |
| 20260505024532 | 67 | 329 | 9.0 | 21.0 | 0.00 | 0.00 | 0.00 | 21 | 1002.6 |
| 20260505023058 | 67 | 355 | 10.0 | 20.0 | 0.00 | 0.00 | 0.00 | 20 | 1002.5 |
| 20260505023004 | 67 | 323 | 10.0 | 20.0 | 0.00 | 0.00 | 0.00 | 20 | 1002.4 |
| 20260505021542 | 68 | 333 | 10.0 | 21.0 | 0.00 | 0.00 | 0.00 | 19 | 1002.4 |
| 20260505020026 | 68 | 303 | 10.0 | 18.0 | 0.00 | 0.00 | 0.00 | 18 | 1002.1 |
| 20260505014607 | 69 | 302 | 8.0 | 15.0 | 0.00 | 0.00 | 0.00 | 19 | 1002.1 |
| 20260505014501 | 69 | 355 | 7.0 | 15.0 | 0.00 | 0.00 | 0.00 | 19 | 1002.1 |
| 20260505013042 | 69 | 318 | 9.0 | 16.0 | 0.00 | 0.00 | 0.00 | 18 | 1001.9 |
| 20260505011519 | 70 | 305 | 12.0 | 19.0 | 0.00 | 0.00 | 0.00 | 18 | 1001.7 |
| 20260505010059 | 70 | 310 | 10.0 | 21.0 | 0.00 | 0.00 | 0.00 | 17 | 1001.7 |
| 20260505010004 | 71 | 312 | 12.0 | 21.0 | 0.00 | 0.00 | 0.00 | 17 | 1001.8 |
| 20260505004540 | 71 | 318 | 14.0 | 20.0 | 0.00 | 0.00 | 0.00 | 17 | 1001.9 |
| 20260505003020 | 71 | 286 | 9.0 | 18.0 | 0.00 | 0.00 | 0.00 | 16 | 1001.9 |
| 20260505001600 | 72 | 295 | 14.0 | 24.0 | 0.00 | 0.00 | 0.00 | 15 | 1002.0 |
| 20260505001502 | 72 | 26 | 15.0 | 24.0 | 0.00 | 0.00 | 0.00 | 15 | 1001.9 |
| 20260505000046 | 72 | 285 | 13.0 | 21.0 | 0.00 | 0.00 | 0.00 | 14 | 1001.8 |
| 20260504234525 | 72 | 309 | 14.0 | 24.0 | 0.00 | 0.00 | 0.00 | 13 | 1001.8 |
| 20260504233004 | 72 | 340 | 14.0 | 23.0 | 0.00 | 0.00 | 0.00 | 13 | 1002.3 |
| 20260504231543 | 72 | 317 | 13.0 | 21.0 | 0.00 | 0.00 | 0.00 | 12 | 1002.2 |
| 20260504230026 | 72 | 300 | 14.0 | 24.0 | 0.00 | 0.00 | 0.00 | 11 | 1002.3 |
| 20260504224506 | 73 | 257 | 12.0 | 24.0 | 0.00 | 0.00 | 0.00 | 12 | 1002.5 |
| 20260504223044 | 73 | 310 | 12.0 | 21.0 | 0.00 | 0.00 | 0.00 | 11 | 1002.4 |
| 20260504221522 | 73 | 141 | 17.0 | 26.0 | 0.00 | 0.00 | 0.00 | 11 | 1002.5 |
| 20260504220004 | 73 | 323 | 16.0 | 24.0 | 0.00 | 0.00 | 0.00 | 12 | 1002.6 |
| 20260504214551 | 73 | 321 | 17.0 | 26.0 | 0.00 | 0.00 | 0.00 | 12 | 1002.8 |
| 20260504213027 | 74 | 261 | 7.0 | 23.0 | 0.00 | 0.00 | 0.00 | 12 | 1002.9 |
| 20260504211510 | 74 | 311 | 11.0 | 20.0 | 0.00 | 0.00 | 0.00 | 13 | 1003.4 |
| 20260504210054 | 74 | 315 | 8.0 | 20.0 | 0.00 | 0.00 | 0.00 | 13 | 1003.5 |
| 20260504204530 | 74 | 319 | 5.0 | 14.0 | 0.00 | 0.00 | 0.00 | 15 | 1003.8 |
| 20260504203134 | 73 | 355 | 8.0 | 15.0 | 0.00 | 0.00 | 0.00 | 15 | 1004.3 |
| 20260504201537 | 73 | 52 | 10.0 | 22.0 | 0.00 | 0.00 | 0.00 | 16 | 1004.9 |
| 20260504200013 | 73 | 292 | 6.0 | 15.0 | 0.00 | 0.00 | 0.00 | 16 | 1005.0 |
| 20260504194552 | 72 | 302 | 10.0 | 22.0 | 0.00 | 0.00 | 0.00 | 16 | 1005.1 |
| 20260504193028 | 71 | 296 | 7.0 | 17.0 | 0.00 | 0.00 | 0.00 | 17 | 1005.4 |
| 20260504191510 | 71 | 308 | 10.0 | 19.0 | 0.00 | 0.00 | 0.00 | 17 | 1005.8 |
| 20260504190042 | 71 | 288 | 10.0 | 22.0 | 0.00 | 0.00 | 0.00 | 16 | 1005.9 |
| 20260504184523 | 71 | 246 | 2.0 | 19.0 | 0.00 | 0.00 | 0.00 | 18 | 1006.2 |
| 20260504183008 | 70 | 224 | 8.0 | 16.0 | 0.00 | 0.00 | 0.00 | 19 | 1006.7 |
| 20260504181538 | 68 | 340 | 12.0 | 21.0 | 0.00 | 0.00 | 0.00 | 19 | 1006.8 |
| 20260504180024 | 68 | 298 | 8.0 | 19.0 | 0.00 | 0.00 | 0.00 | 20 | 1006.9 |
| 20260504174507 | 68 | 266 | 7.0 | 14.0 | 0.00 | 0.00 | 0.00 | 19 | 1006.8 |
| 20260504173046 | 68 | 285 | 10.0 | 16.0 | 0.00 | 0.00 | 0.00 | 19 | 1007.2 |
| 20260504171517 | 67 | 5 | 4.0 | 11.0 | 0.00 | 0.00 | 0.00 | 21 | 1007.5 |